Find Starlink 5098

NORAD ID: 54013 Int'l Des: 2022-125 Owner: SPXS Country: US Constellation: starlink operational
LEOCIRCULAR

現在のビュー

3D地球を読み込み中...

About Starlink 5098

Starlink 5098 (NORAD 54013) is a starlink constellation satellite (v1.5) launched Oct 5, 2022 by SPXS of US. It operates in LEO, CIRCULAR orbit with a mass of 305.00 kg.

Starlink 5098について

説明を読み込み中...

次回通過

Passes for default location (London). Set your location on the main map for personalized predictions.

高度履歴

Loading altitude history...

軌道要素

1 54013U 22125BB 26195.16668980 .00019887 00000-0 77572-3 0 9996
2 54013 53.1610 355.1246 0001390 76.3759 169.6555 15.25946704 5833
Epoch: Jul 14, 2026 • Age: 12 hours

現在のステータス

高度 488.7 km
遠地点 / 近地点 N/A
速度 7.63 km/s
衛星直下点 28.67°N, 150.53°W
打ち上げ日 Oct 5, 2022
運用期間 3.7 years
タイプ internet

技術仕様

分類 Payload
質量 305.00 kg
乾燥質量 290.00 kg
総質量 305.00 kg
長さ 0.20 m
直径 2.80 m
スパン 9.00 m
形状 Box + pan
製造者 SPXS
バスタイプ Starlink
フェーズステータス In Orbit
所有者/国 SPXS/US

Most Searched